TURKSAT 3A

Last updated on May 23, 2019, 3:05 a.m. UTC

1 33056U 08030B   19142.83093110  .00000138  00000-0  00000+0 0  9991
2 33056   0.0641  93.8416 0005801 341.2442 146.2123  1.00275160 40189
UTC
Height (km)
Latitude
Longitude
Inclination
Orbital Period
UTC large
Height (km)
Speed (km/s)
/
Latitude / Longitude
Inclination (degrees)
Orbital Period (minutes)
Azimuth
Elevation
Range (km)
Doppler Factor
iOS Compass Heading
iOS Angle

Next 30 passes for location: Hong Kong

Rise time Rise Azimuth (degrees) Set time Set Azimuth (degrees) Duration Max altitude (degrees)

No matching passes for this satellites